Chatham, MA

10:14 PM EDT on September 28, 2016 (GMT -0400)
Chatham Municipal

Weather History for KCQX - February, 2014

Change the Weather History Date:

Friday, February 28, 2014

  Actual Average Record
Temperature  
Mean Temperature 18 °F -  
Max Temperature 24 °F 39 °F 55 °F (1976)
Min Temperature 12 °F 26 °F 7 °F (2015)
Degree Days  
Heating Degree Days 47    
Moisture  
Dew Point 0 °F    
Average Humidity 47    
Maximum Humidity 64    
Minimum Humidity 32    
Precipitation  
Precipitation 0.00 in - - ()
Sea Level Pressure  
Sea Level Pressure 30.26 in    
Wind  
Wind Speed 9 mph (West)    
Max Wind Speed 15 mph    
Max Gust Speed 28 mph    
Visibility 10 miles    
Events      
Averages and records for this station are not official NWS values.
T = Trace of Precipitation, MM = Missing Value Source: NWS Daily Summary

Daily Weather History Graph

Daily Weather History Graph

Search for Another Location

Airport or City:

Trip Planner

Search our weather history database for the weather conditions in past years. The results will help you decide how hot, cold, wet, or windy it might be!

Date:

Astronomy

Feb. 28, 2014 Rise Set
Actual Time 6:16 AM EST 5:29 PM EST
Civil Twilight 5:48 AM EST 5:57 PM EST
Nautical Twilight 5:16 AM EST 6:29 PM EST
Astronomical Twilight 4:44 AM EST 7:01 PM EST
Moon 5:29 AM EST (2/28) 5:02 PM EST (2/28)
Length of Visible Light 12h 08m
Length of Day
11h 12m
Waning Crescent, 1% of the Moon is Illuminated
Feb 28
Waning Crescent
Mar 1
New
Mar 8
First Quarter
Mar 16
Full
Mar 23
Last Quarter

Hourly Weather History & Observations

Time (EST) Temp. Windchill Dew Point Humidity Pressure Visibility Wind Dir Wind Speed Gust Speed Precip Events Conditions
12:52 AM 19.0 °F 6.8 °F 6.1 °F 57% 29.93 in 10.0 mi West 11.5 mph 19.6 mph N/A   Partly Cloudy
1:52 AM 16.0 °F 2.9 °F -2.0 °F 45% 29.96 in 10.0 mi WNW 11.5 mph 24.2 mph N/A   Clear
2:52 AM 14.0 °F - -5.1 °F 43% 29.99 in 10.0 mi North - - N/A   Clear
3:52 AM 12.9 °F -0.9 °F -5.1 °F 45% 30.03 in 10.0 mi WNW 11.5 mph 21.9 mph N/A   Clear
4:52 AM 12.0 °F -4.0 °F -7.1 °F 42% 30.09 in 10.0 mi WNW 15.0 mph 27.6 mph N/A   Clear
5:52 AM 12.0 °F -2.7 °F -4.0 °F 49% 30.12 in 10.0 mi West 12.7 mph 20.7 mph N/A   Clear
6:52 AM 12.9 °F 1.6 °F -2.0 °F 51% 30.16 in 10.0 mi WNW 8.1 mph 23.0 mph N/A   Clear
7:52 AM 15.1 °F 4.2 °F -0.0 °F 51% 30.20 in 10.0 mi WNW 8.1 mph 19.6 mph N/A   Clear
8:52 AM 18.0 °F 6.1 °F 3.0 °F 52% 30.23 in 10.0 mi NW 10.4 mph 17.3 mph N/A   Partly Cloudy
9:52 AM 19.9 °F 7.9 °F 3.9 °F 50% 30.26 in 10.0 mi NNW 11.5 mph 19.6 mph N/A   Partly Cloudy
10:52 AM 21.0 °F 8.6 °F 3.9 °F 48% 30.30 in 10.0 mi WNW 12.7 mph 21.9 mph N/A   Clear
11:52 AM 21.0 °F 9.3 °F 3.0 °F 46% 30.32 in 10.0 mi NW 11.5 mph 20.7 mph N/A   Clear
12:52 PM 21.9 °F 13.4 °F -0.0 °F 38% 30.30 in 10.0 mi Variable 6.9 mph 16.1 mph N/A   Clear
1:52 PM 23.0 °F 15.8 °F -2.9 °F 32% 30.31 in 10.0 mi Variable 5.8 mph - N/A   Clear
2:52 PM 24.1 °F 14.4 °F -0.0 °F 35% 30.34 in 10.0 mi South 9.2 mph - N/A   Clear
3:52 PM 23.0 °F 13.9 °F 1.0 °F 39% 30.36 in 10.0 mi SW 8.1 mph - N/A   Clear
4:52 PM 23.0 °F 13.9 °F -0.0 °F 37% 30.38 in 10.0 mi SSW 8.1 mph - N/A   Clear
5:52 PM 21.9 °F 15.7 °F 1.0 °F 40% 30.39 in 10.0 mi WSW 4.6 mph - N/A   Clear
6:52 PM 19.0 °F 13.9 °F 1.0 °F 46% 30.40 in 10.0 mi West 3.5 mph - N/A   Clear
7:52 PM 17.1 °F - 1.9 °F 52% 30.42 in 10.0 mi Calm Calm - N/A   Clear
8:52 PM 16.0 °F 10.4 °F 1.9 °F 54% 30.43 in 10.0 mi WNW 3.5 mph - N/A   Clear
9:52 PM 15.1 °F 9.4 °F 1.9 °F 56% 30.44 in 10.0 mi West 3.5 mph - N/A   Clear
10:52 PM 15.1 °F - 3.0 °F 59% 30.45 in 10.0 mi Calm Calm - N/A   Clear
11:52 PM 14.0 °F - 3.9 °F 64% 30.45 in 10.0 mi Calm Calm - N/A   Clear